Location: Walton
(43.6794°N, 81.3017°W)
Time: 13:38:03
(UTC+00:00)

NOSS 3-1 (A) - Pass Details

Date: 09 December 2025
Orbit: 613 x 1593 km, 63.4° (Epoch: 10 January)

Event Time Altitude Azimuth Distance (km) Brightness Sun altitude
Exits shadow 11:03:23 16° 327° (NNW) 2,606 5.3 -18.0°
Maximum altitude 11:09:34 75° 52° (NE) 1,341 4.2 -17.0°
Drops below altitude 10° 11:18:34 10° 137° (SE) 3,629 7.4 -15.4°
Sets 11:21:48 0° 139° (SE) 4,686 8.1 -14.9°
